YAOGAN 24 (40310 NORAD) Tracking and Keplerian Element Data

This shows tracking and keplerian element data for the satellite.

Feedback or suggestion? Click here.




ElementValue
Catalog40310
NameYAOGAN 24
Epoch Orbit21450
Epoch Day316.52797935
Epoch Year2018
RAAN79.4784
Inclination98.0601
Eccentricity0.0016246
Argument of Perigee214.1408
Mean Anonmoly145.8761
Mean Motion14.77242161
Decay Rate7.8E-07
L11 40310U 14072A 18316.52797935 .00000078 00000-0 18394-4 0 9992
L22 40310 98.0601 79.4784 0016246 214.1408 145.8761 14.77242161214501

Live tracking and technical data element details for YAOGAN 24 (NORAD 40310). YAOGAN 24 can be tracked NOW for your location showing map with azimuth and elevation plus other details from your city location.

Track the satellite on the map from your city or location and see movement details for azimuth, elevation, latitude, longitude, range, height, and movement on the map or in text.







IsCatalogInMostPopularTable: catalog: 40310, numindb: 118
Update: records affected: 1



GetName: 40310 YAOGAN 24

Hit Count: updated at: Mon, 12 Nov 2018 18:40:08 GMT